Temperature
12 11 10 10 9 9 9 9 9 9 9 9 9 9 10 10 11 11 11 12 12 12 12 13 13 13 14 14 15 15 16 16 16 16 16 16 16 16 15 15 15 15 16
11 10 10 9 9 9 8 8 8 8 8 8 8 8 9 9 10 10 11 11 11 12 12 12 12 13 13 14 14 15 15 16 16 16 16 15 15 15 15 15 14 14 15
10 10 9 9 9 8 8 8 8 8 8 8 8 8 8 8 9 9 10 10 11 11 11 12 12 12 12 13 13 14 14 15 15 15 16 15 15 15 14 14 14 14 14
10 9 9 9 8 8 8 8 8 7 7 7 7 7 7 7 8 8 9 9 10 11 11 11 11 12 12 12 12 13 13 14 14 15 15 15 15 14 14 14 13 13 13
10 9 9 8 8 8 8 8 7 7 7 7 7 7 7 7 7 8 8 8 9 10 10 11 11 11 11 12 12 12 13 13 13 14 14 15 15 14 14 14 13 12 12
9 9 9 8 8 8 8 8 7 7 7 7 7 6 6 6 7 7 7 8 8 9 9 10 10 11 11 11 11 12 12 12 12 13 14 14 15 15 14 14 13 12 11
9 9 9 8 8 8 8 7 7 7 7 7 6 6 6 6 6 6 7 7 7 8 9 9 10 10 11 11 11 11 11 11 11 12 13 14 14 14 14 13 13 13 12
9 9 8 8 8 8 7 7 7 7 7 7 6 6 6 6 6 6 6 6 7 7 8 9 9 10 10 11 11 11 11 11 11 11 12 13 14 14 14 14 13 12 12
9 8 8 8 7 7 7 7 7 7 7 7 6 6 6 6 6 6 6 6 6 7 8 8 9 9 10 10 10 10 10 10 10 11 11 12 13 13 14 13 12 12 11
8 8 8 7 7 7 7 7 7 7 7 7 6 6 6 6 6 6 6 6 6 6 7 8 8 9 9 10 10 10 10 10 10 10 11 11 11 12 13 13 13 13 12
8 8 7 7 7 7 7 7 7 7 7 7 7 6 6 6 6 6 6 6 6 6 7 8 8 9 9 10 10 10 10 10 10 10 10 11 11 11 12 13 12 13 13
8 8 7 7 7 7 7 7 7 7 7 7 7 6 6 6 6 6 6 6 6 6 7 8 8 9 9 9 10 10 10 10 10 10 10 10 11 11 12 12 12 12 12
7 7 7 7 7 7 7 7 7 7 7 7 6 6 6 6 6 6 6 6 6 7 7 8 8 9 9 9 10 10 10 10 10 10 10 10 11 11 11 12 12 11 11
7 7 7 7 7 7 7 7 7 7 7 7 6 6 6 6 6 6 6 6 7 7 7 7 8 8 9 9 9 10 10 10 10 10 10 10 10 11 11 11 11 11 11
6 6 7 6 6 7 7 7 8 8 7 7 6 6 5 6 6 6 6 6 6 7 7 7 8 8 9 9 9 10 10 10 10 10 10 10 10 10 10 11 11 11 11
6 6 6 6 6 7 7 8 8 8 7 7 7 6 6 6 6 6 6 6 6 7 7 7 8 9 9 9 9 9 10 10 10 10 10 10 10 10 10 10 11 11 11
6 6 6 6 7 7 7 8 8 8 8 7 7 6 6 6 6 6 6 6 6 7 7 8 8 9 9 10 10 10 10 10 10 10 10 10 10 10 10 10 10 10 11
6 6 6 6 7 7 8 8 8 8 8 7 7 7 7 6 6 6 6 6 6 7 7 7 8 9 9 10 10 10 10 10 10 10 10 10 10 10 10 10 10 10 10
6 7 7 7 7 8 8 8 9 8 8 8 7 7 7 7 6 6 6 6 6 7 7 7 8 8 9 9 10 10 10 10 10 10 10 10 10 10 10 10 10 10 10
7 7 7 7 7 8 8 9 9 9 9 8 8 8 7 7 7 7 7 7 7 7 8 8 8 8 9 9 9 9 10 10 10 10 10 10 10 10 10 10 10 9 9
7 7 7 7 8 8 9 9 9 9 9 9 8 8 8 8 7 7 7 7 7 8 8 8 8 9 9 9 9 9 9 10 10 9 10 10 10 9 10 9 9 9 9
7 7 7 7 8 8 9 9 9 9 9 9 9 9 8 8 8 8 8 8 8 8 8 8 8 9 9 9 9 9 9 9 9 9 9 9 9 9 9 9 9 9 9
7 7 7 7 8 8 9 9 9 9 9 9 9 9 8 8 8 8 8 8 8 8 8 8 9 9 9 9 9 9 9 9 9 9 9 9 9 9 9 9 9 9 9
7 7 7 7 8 8 8 9 9 9 9 9 9 8 8 8 8 8 8 8 8 8 8 8 9 9 9 9 9 9 9 9 9 9 9 9 9 9 9 9 9 9 10
6 7 7 7 7 8 8 9 9 9 9 9 9 8 8 8 8 8 8 8 8 8 8 8 8 8 9 9 9 9 9 9 9 9 9 9 9 9 9 9 9 9 10
6 7 7 7 7 7 8 9 9 9 9 9 9 9 8 8 8 8 8 8 8 8 8 8 8 8 8 8 8 8 9 8 9 9 9 9 9 9 9 9 9 9 10
Wind_Speed
8 7 7 8 8 9 8 9 8 9 9 10 10 11 11 11 10 10 10 10 10 9 8 7 7 7 6 7 6 5 3 2 3 3 3 7 8 9 8 9 10 8 7
8 8 8 8 9 9 10 9 9 9 10 10 10 11 12 12 11 11 12 13 12 11 10 9 8 7 8 7 6 6 5 4 3 4 4 7 7 10 9 8 6 9 8
10 9 9 10 10 9 10 10 9 10 10 11 10 10 11 11 12 12 12 12 12 12 12 11 10 9 9 8 8 7 5 5 4 3 4 6 6 9 10 9 9 7 7
11 10 10 10 10 10 10 10 10 10 11 11 10 11 11 12 12 13 13 13 13 12 12 12 11 11 10 9 8 8 7 6 5 5 5 6 7 10 10 9 7 6 5
11 11 11 10 10 10 10 10 11 11 13 11 11 11 12 12 13 13 11 14 13 13 13 12 13 13 14 11 9 8 8 7 6 7 6 6 6 10 9 7 8 7 4
10 12 11 11 11 11 10 11 11 11 11 11 12 13 13 15 15 13 11 10 10 11 12 13 14 12 14 15 13 10 10 10 9 8 8 7 9 9 9 10 10 8 4
11 12 11 11 12 12 14 13 12 12 12 12 12 13 13 14 16 16 15 11 11 10 12 11 15 16 15 12 12 11 9 7 7 7 8 7 7 8 10 12 11 10 5
12 12 12 12 14 13 14 14 13 12 12 12 12 13 13 15 16 15 15 13 12 12 12 11 12 13 12 12 13 12 10 9 8 5 5 4 3 3 6 9 11 9 9
13 13 14 14 15 15 15 15 14 12 12 12 12 12 12 13 15 15 14 11 10 11 12 11 12 13 14 14 13 12 11 10 11 10 7 5 3 1 3 8 12 13 9
13 14 14 14 15 16 16 15 14 12 12 12 12 11 12 12 13 13 13 9 9 9 9 9 12 13 14 15 13 12 11 10 10 11 8 7 5 5 6 9 12 14 10
13 14 15 15 15 16 15 13 13 12 12 12 12 11 11 12 11 12 12 9 8 8 7 7 8 12 13 15 13 10 11 10 10 11 10 8 7 6 6 8 10 12 12
14 15 16 16 16 16 15 15 14 12 12 11 10 10 8 8 8 8 10 11 8 6 6 6 6 12 13 13 9 9 11 9 7 8 8 8 7 7 7 9 10 8 6
15 16 16 17 16 16 15 14 12 10 9 8 8 8 7 6 3 5 7 8 7 4 2 1 4 10 11 10 9 10 9 6 6 7 8 8 8 8 7 7 7 7 7
15 16 15 15 16 15 13 11 9 9 8 8 7 6 7 5 3 1 3 4 5 4 2 3 6 9 8 7 8 7 6 6 6 6 7 7 7 8 8 8 8 10 8
15 15 15 14 15 14 13 10 9 7 5 5 7 6 6 5 4 6 4 2 2 4 5 4 4 5 6 6 7 8 7 6 6 5 6 6 7 8 8 10 11 10 7
13 13 12 12 12 12 12 11 8 6 5 5 5 5 5 2 3 4 5 6 6 4 3 5 6 7 8 8 8 8 9 8 7 6 6 7 8 9 9 10 11 11 11
13 13 12 12 12 12 11 10 9 5 6 6 6 6 6 5 3 1 2 3 3 2 2 5 5 6 6 6 6 7 8 8 7 6 7 7 8 10 11 12 12 11 12
14 13 13 11 12 12 11 10 8 7 5 3 5 6 6 5 4 2 1 1 3 4 5 6 6 5 5 5 5 5 5 6 7 6 6 8 9 10 12 13 13 13 13
13 11 11 12 12 12 11 9 7 7 5 2 2 3 4 5 5 4 4 5 6 6 8 8 7 6 6 5 4 4 5 6 7 6 6 8 9 11 12 13 13 16 14
11 14 14 12 12 11 10 8 6 5 4 3 2 2 3 4 4 5 6 7 7 6 6 7 7 6 5 4 4 5 5 5 6 6 7 8 9 11 12 14 14 15 14
11 12 15 13 11 10 9 8 6 5 5 4 2 1 2 4 5 5 6 8 8 7 7 6 6 6 6 5 5 6 7 6 6 6 7 8 10 11 11 12 14 14 14
10 10 11 11 11 10 10 8 6 5 5 5 3 2 5 5 4 4 5 6 7 6 6 6 7 7 6 7 7 7 7 7 7 7 7 8 10 11 11 12 13 13 13
9 10 11 11 10 11 10 7 6 5 5 5 4 3 2 4 4 4 4 4 4 5 5 5 6 6 5 5 6 6 6 7 7 8 8 9 10 11 12 13 14 14 13
9 10 11 11 11 9 9 8 6 5 5 5 5 5 4 4 4 4 4 4 4 4 5 5 5 6 6 4 4 5 5 5 7 7 10 10 12 11 12 13 13 14 12
9 9 10 10 11 10 9 8 7 6 5 4 4 4 5 4 4 4 4 4 3 3 3 3 3 4 6 8 7 5 7 8 7 6 8 10 13 13 13 13 11 10 10
8 9 9 9 10 10 9 8 7 6 5 4 4 4 4 4 4 5 4 2 2 2 1 0 2 4 5 5 7 9 10 9 8 7 7 10 12 12 12 10 11 10 10
Wind_Direction
331 334 329 323 321 313 305 303 309 310 309 304 301 299 294 287 279 267 254 250 251 247 238 233 229 229 238 249 255 250 257 255 214 198 167 154 139 131 131 128 140 126 96
336 331 325 321 316 313 312 313 310 306 305 303 300 298 294 289 283 276 266 255 243 241 237 230 228 222 221 233 243 243 236 225 217 202 161 157 151 142 141 137 123 105 96
327 323 320 316 313 310 309 306 304 301 297 297 294 293 292 292 289 284 277 268 257 244 237 229 222 215 214 216 223 230 234 230 215 208 185 169 162 150 136 120 107 106 102
324 319 313 310 309 307 304 302 300 298 294 290 289 288 286 284 284 283 278 272 265 256 244 235 226 216 211 208 214 217 216 221 215 212 201 177 167 155 142 135 129 124 115
318 312 308 305 304 301 299 297 295 293 294 294 292 288 284 281 275 271 273 273 271 265 255 243 234 221 209 204 208 209 207 210 211 209 205 190 171 163 162 154 143 128 109
311 308 304 302 300 299 298 296 296 296 294 290 286 283 280 279 282 288 287 285 283 277 267 254 245 233 217 202 203 200 201 208 209 206 205 197 188 178 169 156 149 148 143
311 308 307 307 306 305 306 306 302 300 297 291 286 281 277 274 272 269 267 267 266 265 260 253 245 235 215 202 195 188 193 202 207 203 205 199 187 183 174 161 163 161 140
316 313 313 311 308 307 305 301 300 299 294 290 284 281 277 274 268 259 255 258 258 255 252 246 241 245 229 203 196 198 201 200 196 191 191 171 138 136 169 169 156 130 113
319 318 316 313 309 306 303 301 300 297 293 291 288 281 278 275 268 258 249 259 254 253 249 239 233 234 235 207 195 193 196 199 200 193 179 161 144 151 165 153 148 143 140
320 318 314 310 308 305 300 298 298 296 293 292 289 286 283 278 269 256 246 252 249 249 245 237 232 230 225 201 194 191 194 196 185 185 186 187 199 214 200 173 161 156 147
320 315 311 309 307 302 298 298 298 296 295 294 291 288 284 279 271 254 238 238 240 242 239 232 222 209 209 199 193 188 193 188 184 179 183 187 192 202 190 178 174 165 159
319 315 313 311 309 306 303 299 297 296 297 295 294 295 292 285 273 255 231 225 232 236 239 233 206 183 187 190 188 175 172 175 176 177 180 185 189 195 190 179 179 171 156
319 316 314 313 309 305 301 299 300 300 299 300 302 305 306 302 278 239 224 215 212 215 218 221 169 172 177 184 183 165 167 181 179 182 188 189 189 188 175 162 149 131 113
317 316 316 314 311 308 304 300 301 305 306 309 313 315 316 322 334 320 211 189 158 149 135 126 150 164 185 181 167 176 197 202 192 193 191 186 179 179 168 150 144 131 115
318 316 316 313 310 308 305 301 301 303 300 300 312 316 322 337 15 20 19 46 132 144 155 159 166 173 188 192 186 188 199 208 211 202 190 181 177 176 163 153 148 143 139
317 316 314 313 311 308 308 307 292 279 255 252 262 283 304 339 4 29 51 60 67 80 156 187 195 194 197 199 199 198 200 205 204 199 189 180 178 172 162 156 159 158 153
314 312 312 311 309 309 308 307 308 288 241 248 258 265 269 296 307 11 66 71 63 68 228 227 221 217 221 218 208 201 199 199 195 192 185 181 176 169 166 165 165 162 158
313 311 310 310 309 308 305 303 302 306 298 264 227 240 251 252 248 236 192 221 216 211 231 237 236 235 235 236 226 211 200 188 185 187 185 178 174 170 169 170 169 166 163
314 313 314 312 309 306 303 302 305 306 303 286 246 195 213 219 219 223 213 235 235 219 218 226 233 239 237 229 220 214 204 189 180 182 183 177 174 171 172 172 171 168 165
315 312 314 313 311 309 309 314 320 322 324 312 269 244 185 203 221 206 212 229 239 239 232 226 227 232 229 220 209 205 202 189 176 177 180 178 175 173 174 174 173 173 174
316 317 318 316 317 317 320 324 327 331 328 319 300 210 233 253 252 227 217 224 233 236 234 234 229 227 219 207 209 208 204 192 180 177 177 178 177 176 175 175 175 174 173
314 317 321 319 321 322 323 321 328 335 333 333 321 236 226 260 272 257 242 234 232 232 231 227 231 229 221 211 204 203 201 191 179 175 176 178 176 176 174 175 174 174 172
315 320 323 323 323 322 320 330 340 342 343 335 332 327 280 275 282 274 264 256 244 234 229 225 231 234 223 205 195 195 200 188 176 172 175 177 176 176 174 174 173 172 173
318 324 327 329 329 331 331 335 340 351 355 349 351 348 336 315 306 300 294 280 260 248 238 230 235 231 216 192 185 192 184 165 163 173 177 176 175 173 171 172 173 174 172
325 330 331 331 331 333 333 336 340 349 359 360 357 348 341 337 328 316 301 293 284 271 253 230 221 219 208 198 191 171 141 139 151 164 173 174 172 168 164 164 167 165 162
333 335 334 332 330 331 333 336 346 352 1 3 352 345 341 342 343 337 336 343 345 338 336 255 192 179 181 180 157 141 137 141 145 152 164 163 158 156 157 159 160 161 160
Height
1481 1478 1474 1471 1468 1465 1462 1460 1457 1455 1453 1451 1449 1448 1448 1448 1448 1448 1448 1449 1449 1449 1449 1449 1450 1451 1453 1455 1458 1461 1464 1467 1469 1472 1475 1478 1480 1482 1484 1487 1489 1489 1491
1477 1473 1470 1466 1463 1460 1457 1455 1452 1449 1447 1445 1443 1441 1440 1440 1440 1440 1441 1442 1442 1443 1443 1444 1444 1445 1446 1448 1451 1454 1457 1461 1465 1468 1471 1474 1477 1479 1482 1484 1485 1486 1487
1473 1469 1465 1462 1459 1456 1453 1450 1447 1444 1441 1439 1437 1435 1433 1432 1432 1431 1432 1433 1434 1435 1436 1437 1438 1439 1439 1441 1444 1447 1450 1454 1458 1463 1467 1470 1473 1477 1479 1481 1482 1484 1485
1469 1465 1461 1458 1455 1451 1448 1445 1442 1439 1435 1433 1430 1428 1426 1425 1424 1423 1423 1424 1425 1426 1428 1430 1431 1432 1433 1435 1436 1439 1443 1447 1452 1457 1461 1465 1469 1473 1475 1477 1480 1482 1483
1464 1461 1457 1454 1451 1447 1443 1440 1436 1433 1430 1427 1424 1421 1419 1417 1416 1415 1415 1415 1416 1417 1419 1421 1423 1425 1427 1429 1430 1433 1436 1439 1444 1450 1454 1460 1464 1467 1470 1473 1476 1479 1481
1460 1457 1453 1450 1446 1442 1438 1435 1431 1427 1424 1420 1417 1413 1411 1409 1408 1407 1406 1406 1406 1407 1409 1412 1415 1418 1420 1422 1424 1427 1430 1433 1437 1442 1447 1452 1456 1461 1466 1469 1472 1475 1479
1456 1452 1448 1445 1441 1437 1433 1429 1425 1421 1417 1413 1409 1406 1402 1400 1398 1397 1396 1396 1396 1397 1400 1403 1408 1411 1413 1416 1418 1421 1423 1426 1431 1435 1441 1445 1452 1456 1461 1464 1468 1472 1475
1452 1447 1443 1439 1435 1431 1426 1422 1418 1414 1410 1406 1402 1398 1394 1392 1390 1388 1387 1387 1387 1388 1391 1395 1399 1403 1406 1409 1412 1414 1417 1420 1424 1429 1435 1440 1446 1451 1455 1460 1464 1469 1474
1447 1442 1438 1433 1428 1424 1419 1415 1412 1408 1403 1399 1395 1391 1387 1383 1381 1380 1379 1378 1378 1380 1383 1387 1391 1395 1399 1403 1406 1409 1411 1415 1419 1424 1430 1435 1440 1445 1450 1455 1459 1464 1469
1442 1437 1432 1427 1422 1417 1413 1409 1405 1402 1397 1393 1388 1384 1380 1376 1373 1372 1371 1371 1372 1373 1376 1380 1385 1389 1393 1397 1401 1404 1407 1410 1414 1418 1424 1429 1435 1440 1445 1449 1453 1459 1463
1437 1432 1426 1421 1416 1411 1406 1403 1399 1396 1391 1387 1382 1377 1373 1369 1366 1365 1364 1364 1366 1368 1371 1375 1380 1384 1388 1393 1397 1401 1404 1407 1411 1414 1419 1424 1430 1435 1440 1445 1450 1455 1459
1432 1426 1421 1415 1410 1405 1401 1397 1394 1390 1386 1381 1377 1372 1368 1364 1362 1360 1359 1360 1362 1365 1367 1371 1376 1381 1385 1390 1394 1398 1402 1405 1408 1411 1415 1419 1424 1430 1436 1441 1447 1452 1457
1427 1421 1416 1410 1405 1400 1397 1393 1389 1386 1382 1377 1373 1368 1364 1361 1358 1357 1356 1357 1360 1363 1366 1369 1373 1378 1383 1389 1393 1397 1401 1404 1407 1409 1412 1416 1421 1426 1432 1437 1443 1449 1454
1422 1417 1411 1405 1400 1396 1393 1390 1386 1382 1378 1374 1370 1366 1362 1360 1357 1356 1356 1357 1359 1362 1365 1368 1372 1377 1383 1387 1391 1395 1398 1402 1405 1407 1410 1413 1417 1422 1426 1432 1438 1444 1449
1418 1413 1407 1402 1397 1393 1389 1387 1383 1379 1375 1371 1367 1364 1361 1359 1358 1357 1357 1358 1360 1363 1365 1369 1373 1377 1382 1385 1389 1392 1395 1398 1402 1405 1407 1410 1413 1418 1422 1428 1433 1439 1444
1414 1409 1404 1399 1394 1390 1387 1383 1380 1376 1372 1368 1365 1361 1359 1358 1358 1357 1358 1359 1361 1364 1367 1370 1373 1377 1380 1384 1386 1389 1392 1395 1398 1401 1404 1406 1409 1413 1418 1423 1428 1434 1440
1411 1406 1401 1396 1392 1388 1384 1381 1377 1373 1370 1366 1363 1360 1358 1356 1356 1357 1358 1359 1362 1364 1367 1369 1372 1376 1379 1382 1384 1386 1389 1392 1395 1397 1400 1402 1406 1410 1414 1419 1424 1430 1435
1408 1403 1399 1394 1390 1386 1382 1379 1375 1371 1368 1365 1362 1359 1357 1356 1355 1356 1357 1359 1361 1363 1365 1368 1371 1373 1376 1378 1381 1383 1386 1388 1391 1393 1396 1399 1402 1405 1410 1415 1420 1425 1431
1405 1401 1396 1392 1388 1384 1380 1377 1374 1370 1367 1364 1362 1359 1357 1356 1355 1355 1355 1357 1359 1362 1364 1366 1368 1370 1373 1375 1377 1380 1382 1384 1387 1389 1392 1395 1398 1402 1406 1411 1416 1422 1427
1402 1398 1394 1390 1386 1382 1379 1376 1373 1370 1367 1364 1362 1360 1358 1356 1355 1355 1355 1356 1357 1359 1361 1363 1365 1367 1369 1371 1373 1376 1378 1381 1383 1386 1388 1391 1394 1398 1402 1407 1412 1417 1423
1400 1396 1392 1388 1384 1381 1378 1375 1372 1369 1367 1364 1362 1360 1359 1357 1356 1355 1355 1355 1355 1356 1358 1359 1361 1363 1365 1367 1369 1372 1375 1377 1380 1382 1385 1387 1391 1394 1399 1404 1409 1414 1420
1399 1395 1391 1387 1383 1380 1377 1375 1372 1369 1366 1364 1362 1360 1358 1357 1356 1354 1354 1353 1353 1354 1355 1356 1358 1359 1361 1363 1365 1368 1371 1373 1376 1378 1381 1384 1387 1391 1395 1400 1406 1412 1419
1398 1394 1390 1386 1383 1380 1376 1374 1371 1369 1366 1363 1361 1359 1357 1356 1354 1353 1352 1352 1351 1351 1352 1353 1354 1356 1357 1359 1361 1364 1367 1370 1372 1374 1377 1380 1384 1388 1392 1397 1403 1410 1417
1396 1393 1389 1385 1382 1379 1376 1374 1372 1369 1366 1364 1361 1359 1357 1355 1353 1351 1350 1349 1348 1348 1349 1349 1350 1352 1353 1355 1357 1360 1363 1365 1368 1370 1373 1376 1380 1385 1390 1396 1402 1409 1416
1395 1392 1388 1385 1382 1379 1377 1374 1372 1370 1367 1364 1362 1359 1356 1354 1352 1350 1348 1346 1345 1345 1345 1345 1346 1347 1349 1351 1353 1356 1358 1361 1364 1367 1370 1374 1378 1383 1388 1394 1401 1408 1415
1394 1391 1387 1384 1381 1379 1377 1375 1372 1370 1368 1366 1363 1360 1357 1354 1352 1349 1346 1345 1343 1342 1341 1341 1341 1342 1344 1347 1349 1351 1354 1358 1361 1364 1367 1371 1376 1382 1388 1394 1401 1408 1415